[[{"header":{"parameterUnit":"m.s-1","parameterCategory":1,"la1":30.2991,"la2":30.254,"lo1":-89.0895,"lo2":-89.0444,"dy":0.0017,"dx":0.0017,"nx":28,"ny":28,"refTime":"2025-08-27T03:00:00:Z","depth":0,"parameterNumber":2,"parameterNumberName":"U-component_of_WINDS"},"data":[0,0,0,0,0,0,0,0,0,0,0,0,0,0,0,0,0,0,0,0,0,0,0,0,0,0,0,0,0,0,0,0,0,0,0,0,0,0,0,0,0,0,0,0,0,0,0,0,0,0,0,0,0,0,0,0,0,0,-2.1163,-2.1164,0,-2.1217,-2.1217,-2.1218,-2.1171,-2.1169,-2.1167,-2.1165,-2.1219,-2.1222,-2.1225,0,0,0,0,0,0,0,0,0,0,0,0,0,-2.1018,-2.1021,-2.1163,-2.1164,-2.1164,-2.1217,-2.1217,-2.1218,-2.1171,-2.1169,-2.1167,-2.1164,-2.1218,-2.1221,-2.1225,0,0,0,0,0,0,0,0,0,0,0,0,0,-2.1077,-2.1022,-2.1163,-2.1147,-2.1146,-2.1216,-2.1217,-2.1218,-2.1172,-2.1169,-2.1166,-2.1163,-2.1216,-2.1221,-2.1226,-2.1313,0,0,-2.124,-2.1243,0,0,0,0,0,0,0,0,-2.1074,-2.1082,-2.1149,-2.1148,-2.1148,-2.1184,-2.1186,-2.125,-2.1172,-2.1162,-2.1165,-2.1162,-2.1209,-2.1215,-2.1231,-2.1316,-2.1318,-2.1241,-2.1244,-2.1246,-2.1247,0,0,0,0,0,0,0,-2.107,-2.108,-2.1184,-2.115,-2.1149,-2.1137,-2.1142,-2.1198,-2.1201,-2.1163,-2.1159,-2.1167,-2.1208,-2.1226,-2.1232,-2.1319,-2.1241,-2.1245,-2.1248,-2.125,-2.1477,-2.148,0,0,0,0,0,0,-2.1067,-2.1077,-2.1182,-2.1186,-2.1103,-2.1142,-2.1148,-2.1175,-2.12,-2.1202,-2.1169,-2.1164,-2.122,-2.1226,-2.1234,-2.1336,-2.1246,-2.125,-2.1253,-2.1474,-2.1478,-2.1481,0,0,0,0,0,0,-2.1065,-2.1077,-2.118,-2.113,-2.1143,-2.1147,-2.1179,-2.1178,-2.1196,-2.1205,-2.1205,-2.1187,-2.1218,-2.1227,-2.1294,-2.1337,-2.1253,-2.1257,-2.147,-2.1475,-2.1479,-2.1543,0,0,0,0,0,0,-2.1061,-2.1077,-2.111,-2.1132,-2.1145,-2.124,-2.1182,-2.1181,-2.1204,-2.1199,-2.1222,-2.1223,-2.1216,-2.1287,-2.1298,-2.1343,-2.1261,-2.1466,-2.1472,-2.1478,-2.1537,-2.155,-2.156,0,0,0,0,0,-2.1056,-2.1126,-2.1112,-2.1125,-2.1188,-2.1243,-2.1251,-2.1242,-2.1208,-2.1242,-2.1248,-2.1222,-2.1331,-2.1294,-2.1307,-2.1353,-2.1463,-2.147,-2.1477,-2.1532,-2.1547,-2.156,0,0,0,0,0,0,-2.111,-2.1129,-2.1113,-2.1193,-2.1217,-2.1235,-2.1277,-2.1258,-2.1291,-2.1284,-2.1271,-2.1277,-2.1347,-2.1357,-2.1315,-2.1438,-2.1392,-2.1402,-2.1429,-2.1444,-2.1455,-2.145,-2.1265,0,0,0,0,0,-2.1131,-2.1175,-2.1189,-2.1258,-2.127,-2.1272,-2.1295,-2.1287,-2.131,-2.132,-2.133,-2.1354,-2.1393,-2.1419,-2.1456,-2.1539,-2.1543,-2.1578,-2.1589,-2.1598,-2.1606,-2.165,-2.1665,-2.1504,-2.1504,-2.1504,0,0,-2.1175,-2.1191,-2.1219,-2.1269,-2.1286,-2.1331,-2.128,-2.133,-2.1362,-2.1327,-2.139,-2.1399,-2.1424,-2.15,-2.1533,-2.151,-2.1652,-2.1607,-2.1615,-2.1618,-2.1658,-2.1674,-2.1687,-2.1509,-2.1508,-2.1507,0,0,-2.1278,-2.1295,-2.1354,-2.1372,-2.1399,-2.1399,-2.1414,-2.1435,-2.1439,-2.1503,-2.1477,-2.1515,-2.1584,-2.1602,-2.1621,-2.1731,-2.1708,-2.1743,-2.1803,-2.1845,-2.1857,-2.1869,-2.1906,-2.192,-2.1752,-2.1752,-2.1752,0,-2.1329,-2.1396,-2.1386,-2.1437,-2.1459,-2.143,-2.1489,-2.1507,-2.1544,-2.156,-2.1534,-2.1618,-2.1633,-2.1712,-2.1738,-2.1755,-2.177,-2.174,-2.1857,-2.1868,-2.1878,-2.1913,-2.1928,-2.1756,-2.1756,-2.1755,-2.1755,0,-2.1456,-2.1503,-2.1547,-2.1584,-2.1611,-2.1666,-2.1664,-2.1693,-2.1682,-2.1685,-2.175,-2.1767,-2.1806,-2.1824,-2.1814,-2.1901,-2.1885,-2.1859,-2.1811,-2.1897,-2.193,-2.1944,-2.1762,-2.176,-2.1759,-2.1758,0,0,-2.1593,-2.1625,-2.1641,-2.1656,-2.1684,-2.172,-2.1773,-2.1812,-2.1836,-2.1863,-2.1906,-2.1965,-2.194,-2.1961,-2.1953,-2.199,-2.2074,-2.1958,-2.1958,-2.1977,-2.2169,-2.2187,-2.2203,-2.206,-2.2063,-2.2065,-2.2166,0,-2.1695,-2.1788,-2.1781,-2.1868,-2.191,-2.1883,-2.1929,-2.1951,-2.1955,-2.1991,-2.1996,-2.2037,-2.2002,-2.2014,-2.205,-2.2056,-2.2112,-2.2049,-2.2098,-2.21,-2.2091,-2.2221,-2.2241,-2.2335,-2.2179,-2.2181,-2.2183,0,-2.1826,-2.1858,-2.1949,-2.197,-2.1987,-2.2029,-2.2063,-2.2099,-2.2122,-2.2123,-2.2147,-2.2132,-2.2185,-2.2138,-2.2209,-2.2167,-2.2187,-2.2193,-2.2196,-2.2198,-2.2145,-2.2225,-2.2366,-2.2379,-2.2204,-2.2202,-2.22,0,-2.1914,-2.198,-2.2043,-2.2058,-2.2084,-2.2113,-2.2126,-2.2147,-2.217,-2.22,-2.2215,-2.2252,-2.2271,-2.2299,-2.2294,-2.226,-2.2366,-2.2319,-2.2367,-2.2367,-2.2388,-2.2386,-2.2532,-2.2405,-2.2405,-2.2405,-2.2405,0,-2.2028,-2.2084,-2.2082,-2.2121,-2.2183,-2.2175,-2.2236,-2.2245,-2.2264,-2.2303,-2.2282,-2.2319,-2.2312,-2.2348,-2.2345,-2.2404,-2.2413,-2.2414,-2.2412,-2.2414,-2.2414,-2.2425,-2.2418,-2.2409,-2.2408,-2.2407,-2.2406,0,-2.2135,-2.2137,-2.2203,-2.2223,-2.2229,-2.2274,-2.229,-2.2326,-2.2329,-2.2378,-2.239,-2.2394,-2.2436,-2.2435,-2.2483,-2.248,-2.2552,-2.2543,-2.2544,-2.2541,-2.2588,-2.2583,-2.2744,-2.2764,-2.2627,-2.2628,-2.2629,0,-2.2206,-2.2249,-2.2273,-2.2298,-2.2312,-2.2353,-2.2377,-2.237,-2.2396,-2.2426,-2.2458,-2.2498,-2.253,-2.2598,-2.2605,-2.2641,-2.2632,-2.2686,-2.2637,-2.2638,-2.263,-2.2627,-2.263,-2.2695,-2.2697,-2.2698,-2.2699,0,-2.2331,-2.233,-2.2365,-2.2402,-2.2431,-2.2459,-2.2484,-2.2506,-2.2502,-2.2532,-2.2575,-2.26,-2.2648,-2.2688,-2.2722,-2.2734,-2.2715,-2.2715,-2.2727,-2.2729,-2.2726,-2.2726,-2.2567,-2.271,-2.2709,-2.2708,-2.2708,-2.2707,-2.2421,-2.2457,-2.248,-2.252,-2.2539,-2.2563,-2.2597,-2.2605,-2.2641,-2.268,-2.2675,-2.2722,-2.2744,-2.2789,-2.2804,-2.284,-2.2821,-2.284,-2.2844,-2.2848,-2.2852,-2.2723,-2.2847,-2.2847,-2.2846,-2.2846,-2.2846,0,-2.2543,-2.2556,-2.2593,-2.263,-2.2661,-2.2643,-2.267,-2.2697,-2.2739,-2.2762,-2.2794,-2.2842,-2.2881,-2.2892,-2.2928,-2.2955,-2.2948,-2.2965,-2.2962,-2.2964,-2.2868,-2.2853,-2.2971,-2.2971,-2.2971,-2.297,-2.297,-2.297,-2.2609,-2.2669,-2.2671,-2.2739,-2.2752,-2.2799,-2.2816,-2.2838,-2.2856,-2.2911,-2.2943,-2.295,-2.2968,-2.3006,-2.304,-2.3042,-2.3055,-2.3076,-2.3074,-2.2984,-2.2971,-2.2959,-2.2944,-2.3079,-2.3079,-2.3166,-2.3167,-2.3168]},{"header":{"parameterUnit":"m.s-1","parameterCategory":1,"la1":30.2991,"la2":30.254,"lo1":-89.0895,"lo2":-89.0444,"dy":0.0017,"dx":0.0017,"nx":28,"ny":28,"refTime":"2025-08-27T03:00:00:Z","depth":0,"parameterNumber":3,"parameterNumberName":"V-component_of_WINDS"},"data":[0,0,0,0,0,0,0,0,0,0,0,0,0,0,0,0,0,0,0,0,0,0,0,0,0,0,0,0,0,0,0,0,0,0,0,0,0,0,0,0,0,0,0,0,0,0,0,0,0,0,0,0,0,0,0,0,0,0,-2.852,-2.8521,0,-2.8639,-2.8641,-2.8642,-2.8684,-2.8684,-2.8683,-2.8683,-2.8799,-2.8803,-2.8806,0,0,0,0,0,0,0,0,0,0,0,0,0,-2.8321,-2.8324,-2.852,-2.8521,-2.8523,-2.8639,-2.8641,-2.8642,-2.8684,-2.8684,-2.8683,-2.8683,-2.8798,-2.8802,-2.8806,0,0,0,0,0,0,0,0,0,0,0,0,0,-2.842,-2.8326,-2.8519,-2.8558,-2.8562,-2.8639,-2.8641,-2.8643,-2.8684,-2.8684,-2.8683,-2.8682,-2.8797,-2.8802,-2.8807,-2.8852,0,0,-2.8823,-2.8825,0,0,0,0,0,0,0,0,-2.8415,-2.8428,-2.8551,-2.8555,-2.856,-2.8646,-2.8614,-2.8713,-2.8684,-2.8638,-2.8683,-2.8682,-2.8748,-2.8758,-2.8781,-2.8858,-2.8863,-2.8824,-2.8827,-2.8829,-2.883,0,0,0,0,0,0,0,-2.8408,-2.8423,-2.8567,-2.8552,-2.8558,-2.8567,-2.858,-2.8633,-2.8695,-2.8642,-2.8645,-2.8659,-2.8751,-2.8776,-2.8784,-2.8864,-2.8823,-2.8828,-2.8831,-2.8833,-2.8983,-2.8984,0,0,0,0,0,0,-2.8395,-2.8417,-2.8563,-2.857,-2.8485,-2.8571,-2.8586,-2.8619,-2.8695,-2.8706,-2.8659,-2.8661,-2.8767,-2.8778,-2.8789,-2.8846,-2.8829,-2.8834,-2.8837,-2.8982,-2.8983,-2.8984,0,0,0,0,0,0,-2.8391,-2.8408,-2.8558,-2.8495,-2.8514,-2.8575,-2.8612,-2.8622,-2.8647,-2.8708,-2.8719,-2.8674,-2.8767,-2.8781,-2.8836,-2.8851,-2.8836,-2.8841,-2.8981,-2.8983,-2.8984,-2.8962,0,0,0,0,0,0,-2.8385,-2.8406,-2.8426,-2.8495,-2.8518,-2.8606,-2.8613,-2.8625,-2.8657,-2.8659,-2.8725,-2.8735,-2.8768,-2.8828,-2.8842,-2.8858,-2.8845,-2.898,-2.8982,-2.8983,-2.8961,-2.8962,-2.8963,0,0,0,0,0,-2.8378,-2.8413,-2.8426,-2.8444,-2.8543,-2.8607,-2.8619,-2.8659,-2.8658,-2.8677,-2.8716,-2.8733,-2.8847,-2.8834,-2.8849,-2.8867,-2.8979,-2.8981,-2.8983,-2.8961,-2.8962,-2.8963,0,0,0,0,0,0,-2.8342,-2.8423,-2.8438,-2.8498,-2.8545,-2.8614,-2.8639,-2.8658,-2.8705,-2.8705,-2.875,-2.8764,-2.8816,-2.8847,-2.883,-2.8914,-2.8914,-2.8919,-2.8892,-2.8893,-2.8894,-2.8885,-2.8849,0,0,0,0,0,-2.8341,-2.8388,-2.8456,-2.8501,-2.8525,-2.8577,-2.8606,-2.8633,-2.8683,-2.8702,-2.8745,-2.8792,-2.8838,-2.8867,-2.8914,-2.8966,-2.898,-2.8986,-2.8986,-2.8987,-2.899,-2.9019,-2.9022,-2.899,-2.899,-2.899,0,0,-2.834,-2.839,-2.8416,-2.8495,-2.8535,-2.858,-2.8594,-2.8641,-2.8675,-2.8709,-2.8764,-2.8797,-2.8852,-2.8906,-2.8931,-2.8933,-2.9002,-2.8989,-2.8989,-2.8992,-2.9022,-2.9025,-2.9027,-2.8992,-2.8991,-2.8991,0,0,-2.836,-2.8403,-2.8446,-2.8486,-2.8547,-2.8582,-2.8592,-2.8658,-2.8682,-2.8738,-2.8765,-2.8804,-2.8883,-2.8921,-2.895,-2.8985,-2.9002,-2.8998,-2.9001,-2.9029,-2.9032,-2.9034,-2.9045,-2.9049,-2.9002,-2.9002,-2.9002,0,-2.835,-2.8421,-2.8465,-2.8511,-2.8545,-2.858,-2.8622,-2.8658,-2.873,-2.8751,-2.8752,-2.8853,-2.8892,-2.8955,-2.8963,-2.8986,-2.8998,-2.8991,-2.9028,-2.9031,-2.9034,-2.9045,-2.9049,-2.9001,-2.9001,-2.9001,-2.9001,0,-2.8405,-2.8454,-2.8481,-2.8552,-2.8588,-2.8632,-2.868,-2.8711,-2.8734,-2.8768,-2.8825,-2.8873,-2.8929,-2.8946,-2.8968,-2.9012,-2.9011,-2.902,-2.902,-2.9035,-2.9047,-2.9051,-2.9,-2.9,-2.9,-2.9,0,0,-2.8406,-2.8501,-2.851,-2.8542,-2.8612,-2.8649,-2.8694,-2.8751,-2.8776,-2.8824,-2.8862,-2.8928,-2.8937,-2.897,-2.8997,-2.9021,-2.9045,-2.9027,-2.9029,-2.9028,-2.9094,-2.9087,-2.9092,-2.9056,-2.9058,-2.9058,-2.909,0,-2.8435,-2.8519,-2.8559,-2.8624,-2.8669,-2.8703,-2.8742,-2.8788,-2.8821,-2.8862,-2.8898,-2.8944,-2.8952,-2.8972,-2.8998,-2.9036,-2.9058,-2.9035,-2.909,-2.9091,-2.9075,-2.9098,-2.909,-2.9117,-2.9094,-2.9095,-2.9096,0,-2.8479,-2.853,-2.86,-2.8664,-2.8684,-2.8719,-2.8774,-2.8814,-2.8866,-2.8888,-2.8925,-2.8951,-2.8998,-2.8996,-2.906,-2.9042,-2.9067,-2.9089,-2.9091,-2.9097,-2.9094,-2.9103,-2.9127,-2.9131,-2.9103,-2.9103,-2.9102,0,-2.8472,-2.8556,-2.861,-2.8636,-2.8713,-2.8736,-2.8768,-2.882,-2.8852,-2.8899,-2.892,-2.8971,-2.8999,-2.9038,-2.9076,-2.9071,-2.9136,-2.9137,-2.9154,-2.9153,-2.9165,-2.9164,-2.9192,-2.9182,-2.9182,-2.9182,-2.9182,0,-2.8499,-2.854,-2.8607,-2.864,-2.8687,-2.8732,-2.8776,-2.8811,-2.8857,-2.8895,-2.8927,-2.8962,-2.9011,-2.9051,-2.9082,-2.9129,-2.9141,-2.9159,-2.9167,-2.9156,-2.9154,-2.9173,-2.9171,-2.9183,-2.9183,-2.9183,-2.9183,0,-2.8498,-2.8545,-2.8605,-2.8673,-2.8691,-2.8722,-2.8779,-2.8811,-2.8846,-2.8894,-2.8908,-2.8962,-2.9011,-2.9054,-2.9118,-2.9138,-2.9187,-2.9196,-2.917,-2.9174,-2.9188,-2.9186,-2.9229,-2.9237,-2.9222,-2.9222,-2.9222,0,-2.8512,-2.8545,-2.8617,-2.8646,-2.8679,-2.8725,-2.8758,-2.8803,-2.8835,-2.8897,-2.8921,-2.8973,-2.9017,-2.9094,-2.9138,-2.9187,-2.9197,-2.9209,-2.9205,-2.9193,-2.9197,-2.9194,-2.9197,-2.9209,-2.9209,-2.9209,-2.9209,0,-2.8532,-2.8554,-2.8601,-2.8656,-2.8695,-2.874,-2.8786,-2.8807,-2.886,-2.8895,-2.8947,-2.8981,-2.9048,-2.9099,-2.9153,-2.9184,-2.9205,-2.921,-2.9216,-2.9205,-2.9189,-2.9197,-2.9169,-2.9208,-2.9209,-2.9209,-2.9209,-2.9209,-2.8539,-2.8569,-2.8625,-2.8676,-2.8716,-2.8758,-2.8791,-2.8831,-2.8876,-2.8935,-2.8958,-2.9011,-2.9061,-2.9136,-2.9168,-2.9208,-2.9211,-2.9221,-2.9223,-2.9224,-2.9222,-2.9183,-2.9218,-2.9218,-2.9218,-2.9218,-2.9219,0,-2.8559,-2.8597,-2.8644,-2.8708,-2.8748,-2.8766,-2.8818,-2.8849,-2.8896,-2.8942,-2.8985,-2.9044,-2.9094,-2.9141,-2.9193,-2.9216,-2.9227,-2.9228,-2.9226,-2.9233,-2.9217,-2.9206,-2.9218,-2.9218,-2.9218,-2.9218,-2.9218,-2.9218,-2.8575,-2.8628,-2.8656,-2.8728,-2.8765,-2.8818,-2.8846,-2.8884,-2.8921,-2.8987,-2.9029,-2.906,-2.9107,-2.9162,-2.9207,-2.922,-2.9237,-2.9235,-2.925,-2.9234,-2.9234,-2.9233,-2.9223,-2.9239,-2.9239,-2.9263,-2.9263,-2.9263]}]]